{"data":{"norad_id":59215,"epoch":"2026-05-24T10:28:53.944608Z","epoch_age_seconds":116980,"freshness":"FRESH","line1":"1 59215U 24046Q   26144.43673547  .00000913  00000+0  38163-4 0  9991","line2":"2 59215  53.1601 162.3064 0001248  93.0279 267.0866 15.34384696124659","mean_motion":15.34384696,"eccentricity":0.0001248,"inclination_deg":53.1601,"raan_deg":162.3064,"arg_perigee_deg":93.0279,"mean_anomaly_deg":267.0866,"bstar":3.8163e-5,"rev_number":12465,"period_min":93.848694121751,"perigee_km":461.89498475958,"apogee_km":463.60246983711,"semimajor_km":6840.8857272983,"source":"CELESTRAK","updated_at":"2026-05-25T13:38:18.866919Z"}}